(°C)
16°
15°
14°
13°
13°
13°
12°
(°C)
14°
14°
13°
12°
12°
11°
11°
K
K
K
K
K
K
K
(km/saat)
7-16
7-15
7-15
7-14
7-13
7-13
7-13
(mm)
0
0
0
0
0
0
0
(%)
3
4
5
4
4
4
3

Güneşin açısı

/ -21.9°
sun-icon
UV 4
06:54
19:07
Azalan ay (209°)
20:26
09:43

Renton (KRNT) için METAR

Zaman Koşullar Sıcaklık/
Çiy noktası
Rüzgar Görünürlük Hava Bulutlar Basınç Değiştir Ham
VFR 16.7°C / 11.7°C 360º 4kt >10km - Clear 1024 - KRNT 240353Z 36004KT 10SM CLR 17/12 A3023 RMK AO2 SLP243 T01670117
VFR 17.2°C / 11.7°C 360º 4kt >10km - Clear 1024 - KRNT 240253Z 36004KT 10SM CLR 17/12 A3023 RMK AO2 SLP243 T01720117 56007
VFR 18.3°C / 11.1°C 330º 9kt >10km - Clear 1024 - KRNT 240153Z 33009KT 10SM CLR 18/11 A3024 RMK AO2 SLP245 T01830111
VFR 20°C / 11.1°C 330º 10kt >10km - Clear 1024 - KRNT 240053Z 33010KT 10SM CLR 20/11 A3024 RMK AO2 SLP246 T02000111
VFR 20.6°C / 11.1°C 320º 9kt >10km - Clear 1025 - KRNT 232353Z 32009KT 10SM CLR 21/11 A3025 RMK AO2 SLP250 T02060111 10211 20167 58011
VFR 20.6°C / 11.1°C 340º 10kt >10km - Clear 1025 - KRNT 232253Z 34010KT 10SM CLR 21/11 A3027 RMK AO2 SLP255 T02060111
VFR 21.1°C / 11.1°C 330º 10kt >10km - Clear 1025 - KRNT 232153Z 33010KT 10SM CLR 21/11 A3028 RMK AO2 SLP257 T02110111
VFR 20°C / 11.1°C 330º 10kt >10km - Clear 1026 - KRNT 232053Z 33010KT 10SM CLR 20/11 A3029 RMK AO2 SLP261 T02000111
VFR 19.4°C / 11.1°C 320º 9kt >10km - Clear 1025 - KRNT 231953Z 32009KT 10SM CLR 19/11 A3028 RMK AO2 SLP259 T01940111
VFR 18.3°C / 12.2°C 330º 7kt >10km - Clear 1026 - KRNT 231853Z 33007KT 10SM CLR 18/12 A3029 RMK AO2 SLP261 T01830122 $
VFR 17.2°C / 12.8°C 350º 4kt >10km - Clear 1026 - KRNT 231753Z 35004KT 10SM CLR 17/13 A3029 RMK AO2 SLP263 T01720128 10172 20139 58004
VFR 16.1°C / 12.2°C 340º 3kt >10km - Clear 1026 - KRNT 231653Z 34003KT 10SM CLR 16/12 A3030 RMK AO2 SLP266 T01610122
VFR 15.6°C / 12.2°C 350º 4kt >10km - Few Clouds 1400ft - KRNT 231627Z 35004KT 10SM FEW014 SCT022 BKN040 16/12 A3032 RMK AO2 T01560122
MVFR 15°C / 12.2°C 350º 6kt >10km - Scattered Clouds 800ft - KRNT 231613Z 35006KT 10SM SCT008 BKN015 OVC039 15/12 A3032 RMK AO2 T01500122
IFR 15°C / 12.2°C 340º 5kt >10km - Overcast 800ft 1027 - KRNT 231553Z 34005KT 9SM OVC008 15/12 A3032 RMK AO2 SLP273 T01500122
IFR 14.4°C / 12.2°C variable 0kt >10km - Overcast 800ft 1026 - KRNT 231453Z 00000KT 7SM OVC008 14/12 A3031 RMK AO2 SLP267 T01440122 53002
IFR 14.4°C / 12.2°C 340º 4kt >10km - Overcast 800ft 1026 - KRNT 231353Z 34004KT 8SM OVC008 14/12 A3031 RMK AO2 SLP267 T01440122
IFR 13.9°C / 11.7°C variable 0kt >10km - Overcast 700ft 1026 - KRNT 231253Z AUTO 00000KT 10SM OVC007 14/12 A3030 RMK AO2 SLP264 T01390117
IFR 13.9°C / 11.7°C variable 0kt >10km - Overcast 800ft 1026 - KRNT 231153Z AUTO 00000KT 10SM OVC008 14/12 A3030 RMK AO2 SLP265 T01390117 10144 20128 50002
IFR 13.9°C / 11.1°C variable 0kt >10km - Overcast 800ft - KRNT 231125Z AUTO 00000KT 10SM OVC008 14/11 A3030 RMK AO2 T01390111
IFR 13.9°C / 11.1°C variable 0kt >10km - Overcast 700ft 1026 - KRNT 231053Z AUTO 00000KT 10SM OVC007 14/11 A3030 RMK AO2 SLP267 T01390111
IFR 13.9°C / 11.1°C variable 0kt >10km - Broken Clouds 900ft - KRNT 231007Z AUTO 00000KT 10SM BKN009 BKN016 OVC029 14/11 A3030 RMK AO2 T01390111
MVFR 13.3°C / 11.1°C variable 0kt >10km - Scattered Clouds 1600ft 1026 - KRNT 230953Z AUTO 00000KT 10SM SCT016 BKN029 OVC039 13/11 A3029 RMK AO2 SLP263 T01330111
MVFR 13.3°C / 11.1°C variable 0kt >10km - Few Clouds 900ft - KRNT 230944Z AUTO 00000KT 10SM FEW009 BKN029 OVC039 13/11 A3029 RMK AO2 T01330111

VFR

16.7°C / 11.7°C

[Daha fazla]
Rüzgar 360º 4kt
Görünürlük >10km
Hava -
Bulutlar Clear
Basınç 1024
Değiştir -
Ham KRNT 240353Z 36004KT 10SM CLR 17/12 A3023 RMK AO2 SLP243 T01670117

VFR

17.2°C / 11.7°C

[Daha fazla]
Rüzgar 360º 4kt
Görünürlük >10km
Hava -
Bulutlar Clear
Basınç 1024
Değiştir -
Ham KRNT 240253Z 36004KT 10SM CLR 17/12 A3023 RMK AO2 SLP243 T01720117 56007

VFR

18.3°C / 11.1°C

[Daha fazla]
Rüzgar 330º 9kt
Görünürlük >10km
Hava -
Bulutlar Clear
Basınç 1024
Değiştir -
Ham KRNT 240153Z 33009KT 10SM CLR 18/11 A3024 RMK AO2 SLP245 T01830111

VFR

20°C / 11.1°C

[Daha fazla]
Rüzgar 330º 10kt
Görünürlük >10km
Hava -
Bulutlar Clear
Basınç 1024
Değiştir -
Ham KRNT 240053Z 33010KT 10SM CLR 20/11 A3024 RMK AO2 SLP246 T02000111

VFR

20.6°C / 11.1°C

[Daha fazla]
Rüzgar 320º 9kt
Görünürlük >10km
Hava -
Bulutlar Clear
Basınç 1025
Değiştir -
Ham KRNT 232353Z 32009KT 10SM CLR 21/11 A3025 RMK AO2 SLP250 T02060111 10211 20167 58011

VFR

20.6°C / 11.1°C

[Daha fazla]
Rüzgar 340º 10kt
Görünürlük >10km
Hava -
Bulutlar Clear
Basınç 1025
Değiştir -
Ham KRNT 232253Z 34010KT 10SM CLR 21/11 A3027 RMK AO2 SLP255 T02060111

VFR

21.1°C / 11.1°C

[Daha fazla]
Rüzgar 330º 10kt
Görünürlük >10km
Hava -
Bulutlar Clear
Basınç 1025
Değiştir -
Ham KRNT 232153Z 33010KT 10SM CLR 21/11 A3028 RMK AO2 SLP257 T02110111

VFR

20°C / 11.1°C

[Daha fazla]
Rüzgar 330º 10kt
Görünürlük >10km
Hava -
Bulutlar Clear
Basınç 1026
Değiştir -
Ham KRNT 232053Z 33010KT 10SM CLR 20/11 A3029 RMK AO2 SLP261 T02000111

VFR

19.4°C / 11.1°C

[Daha fazla]
Rüzgar 320º 9kt
Görünürlük >10km
Hava -
Bulutlar Clear
Basınç 1025
Değiştir -
Ham KRNT 231953Z 32009KT 10SM CLR 19/11 A3028 RMK AO2 SLP259 T01940111

VFR

18.3°C / 12.2°C

[Daha fazla]
Rüzgar 330º 7kt
Görünürlük >10km
Hava -
Bulutlar Clear
Basınç 1026
Değiştir -
Ham KRNT 231853Z 33007KT 10SM CLR 18/12 A3029 RMK AO2 SLP261 T01830122 $

VFR

17.2°C / 12.8°C

[Daha fazla]
Rüzgar 350º 4kt
Görünürlük >10km
Hava -
Bulutlar Clear
Basınç 1026
Değiştir -
Ham KRNT 231753Z 35004KT 10SM CLR 17/13 A3029 RMK AO2 SLP263 T01720128 10172 20139 58004

VFR

16.1°C / 12.2°C

[Daha fazla]
Rüzgar 340º 3kt
Görünürlük >10km
Hava -
Bulutlar Clear
Basınç 1026
Değiştir -
Ham KRNT 231653Z 34003KT 10SM CLR 16/12 A3030 RMK AO2 SLP266 T01610122

VFR

15.6°C / 12.2°C

[Daha fazla]
Rüzgar 350º 4kt
Görünürlük >10km
Hava -
Bulutlar Few Clouds 1400ft
Basınç
Değiştir -
Ham KRNT 231627Z 35004KT 10SM FEW014 SCT022 BKN040 16/12 A3032 RMK AO2 T01560122

MVFR

15°C / 12.2°C

[Daha fazla]
Rüzgar 350º 6kt
Görünürlük >10km
Hava -
Bulutlar Scattered Clouds 800ft
Basınç
Değiştir -
Ham KRNT 231613Z 35006KT 10SM SCT008 BKN015 OVC039 15/12 A3032 RMK AO2 T01500122

IFR

15°C / 12.2°C

[Daha fazla]
Rüzgar 340º 5kt
Görünürlük >10km
Hava -
Bulutlar Overcast 800ft
Basınç 1027
Değiştir -
Ham KRNT 231553Z 34005KT 9SM OVC008 15/12 A3032 RMK AO2 SLP273 T01500122

IFR

14.4°C / 12.2°C

[Daha fazla]
Rüzgar variable 0kt
Görünürlük >10km
Hava -
Bulutlar Overcast 800ft
Basınç 1026
Değiştir -
Ham KRNT 231453Z 00000KT 7SM OVC008 14/12 A3031 RMK AO2 SLP267 T01440122 53002

IFR

14.4°C / 12.2°C

[Daha fazla]
Rüzgar 340º 4kt
Görünürlük >10km
Hava -
Bulutlar Overcast 800ft
Basınç 1026
Değiştir -
Ham KRNT 231353Z 34004KT 8SM OVC008 14/12 A3031 RMK AO2 SLP267 T01440122

IFR

13.9°C / 11.7°C

[Daha fazla]
Rüzgar variable 0kt
Görünürlük >10km
Hava -
Bulutlar Overcast 700ft
Basınç 1026
Değiştir -
Ham KRNT 231253Z AUTO 00000KT 10SM OVC007 14/12 A3030 RMK AO2 SLP264 T01390117

IFR

13.9°C / 11.7°C

[Daha fazla]
Rüzgar variable 0kt
Görünürlük >10km
Hava -
Bulutlar Overcast 800ft
Basınç 1026
Değiştir -
Ham KRNT 231153Z AUTO 00000KT 10SM OVC008 14/12 A3030 RMK AO2 SLP265 T01390117 10144 20128 50002

IFR

13.9°C / 11.1°C

[Daha fazla]
Rüzgar variable 0kt
Görünürlük >10km
Hava -
Bulutlar Overcast 800ft
Basınç
Değiştir -
Ham KRNT 231125Z AUTO 00000KT 10SM OVC008 14/11 A3030 RMK AO2 T01390111

IFR

13.9°C / 11.1°C

[Daha fazla]
Rüzgar variable 0kt
Görünürlük >10km
Hava -
Bulutlar Overcast 700ft
Basınç 1026
Değiştir -
Ham KRNT 231053Z AUTO 00000KT 10SM OVC007 14/11 A3030 RMK AO2 SLP267 T01390111

IFR

13.9°C / 11.1°C

[Daha fazla]
Rüzgar variable 0kt
Görünürlük >10km
Hava -
Bulutlar Broken Clouds 900ft
Basınç
Değiştir -
Ham KRNT 231007Z AUTO 00000KT 10SM BKN009 BKN016 OVC029 14/11 A3030 RMK AO2 T01390111

MVFR

13.3°C / 11.1°C

[Daha fazla]
Rüzgar variable 0kt
Görünürlük >10km
Hava -
Bulutlar Scattered Clouds 1600ft
Basınç 1026
Değiştir -
Ham KRNT 230953Z AUTO 00000KT 10SM SCT016 BKN029 OVC039 13/11 A3029 RMK AO2 SLP263 T01330111

MVFR

13.3°C / 11.1°C

[Daha fazla]
Rüzgar variable 0kt
Görünürlük >10km
Hava -
Bulutlar Few Clouds 900ft
Basınç
Değiştir -
Ham KRNT 230944Z AUTO 00000KT 10SM FEW009 BKN029 OVC039 13/11 A3029 RMK AO2 T01330111

Renton için şu anki uydu görüntüleri, Amerika Birleşik Devletleri

Konum işaretleyici Renton üzerine yerleştirilir. [Daha fazla]

Gerçek zamanlı uydu görüntüsü gündüz süresince görülür ışığı gece süresince kızılötesi ışınım ile birleştirir. Gece kızılötesi ışınım sıcaklık farklarını algılayabildiğinden dolayı görüntü karanlık değildir. Ancak düşük bulutları ve sisi yer sıcaklığından ayırmak zordur ve bu nedenle gece boyunca neredeyse görünmez olabilirler. Avrupa için Meteosat uydu görüntüleri gerçek zamanlı olarak her 5 dakikada bir güncellenir. GOES-16/GOES-17 (Kuzey ve Güney Amerika) ve Himawari (Asya) görüntüleri her 10 dakikada bir güncellenir.

Renton için radar ve yağış nowcast

çiseleyen yağmur
Hafif
Orta
Ağır
Çok ağır
Selamlamak

Konum işaretleyicisi Renton üzerine yerleştirilir. Bu animasyon son saat içerisindeki yağış radarını ve 1h tahminini gösterir. Radar için çiseleyen yağmur veya hafif kar yağışı görünmez olabilir. Yağış yoğunluğu açık maviden turuncuya değişen renk kodludur.